Regional Weather Roundup
Issued by NWS

Home | Current Version | Previous Version | Text Only | Print | Product List | Glossary On
Versions: 1 2 3 4 5 6 7 8 9 10 11 12 13 14 15 16 17 18 19 20 21 22 23 24 25 26 27 28 29 30 31 32 33 34 35 36 37 38 39 40 41 42 43 44 45 46 47 48 49 50
000
ASUS44 KBMX 270310
RWRAL

ALABAMA REGIONAL WEATHER ROUNDUP
NATIONAL WEATHER SERVICE BIRMINGHAM AL
900 PM CST MON JAN 26 2015

NOTE: "FAIR" INDICATES FEW OR NO CLOUDS BELOW 12,000 FEET
WITH NO SIGNIFICANT WEATHER AND/OR OBSTRUCTIONS TO VISIBILITY.

THE REMARK "TC" DENOTES TEMPERATURE IN DEGREES CELSIUS.

ALZ001>011-014-016>018-020-270400-
NORTH ALABAMA

CITY           SKY/WX    TMP DP  RH WIND       PRES   REMARKS
MUSCLE SHOALS  CLOUDY    42  32  67 W3        30.00R
HUNTSVILLE     CLOUDY    40  33  76 CALM      29.98R
DECATUR        CLOUDY    41  30  65 W3        29.98S
HALEYVILLE       N/A     37  31  79 CALM      30.01R
GADSDEN        CLOUDY    37  30  75 CALM      29.98S
$$

ALZ012-013-022-023-030>036-040>044-270400-
WEST CENTRAL ALABAMA

CITY           SKY/WX    TMP DP  RH WIND       PRES   REMARKS
TUSCALOOSA     CLEAR     36  32  85 W3        30.01R
$$

ALZ015-024>027-033>036-040>044-270400-
CENTRAL ALABAMA

CITY           SKY/WX    TMP DP  RH WIND       PRES   REMARKS
BIRMINGHAM     MOCLDY    43  31  62 NW7       30.00S
MONTGOMERY     CLEAR     42  31  64 SW5       30.01R
SHELBY CO ARPT CLEAR     37  33  85 SW5       29.96F WCI  33
MAXWELL AFB    CLEAR     36  33  88 SW2       30.00R
GREENVILLE     FAIR      36  31  82 W3        29.99S
$$

ALZ019-021-028-029-037-038-045>048-270400-
EAST CENTRAL ALABAMA

CITY           SKY/WX    TMP DP  RH WIND       PRES   REMARKS
ANNISTON       CLOUDY    37  31  78 CALM      29.97F
ALEXANDER CITY CLEAR     34  29  83 CALM      29.97S
AUBURN         CLEAR     36  27  69 W3        29.98F
$$

ALZ051>064-270400-
SOUTHWEST ALABAMA

CITY           SKY/WX    TMP DP  RH WIND       PRES   REMARKS
MOBILE         CLEAR     39  32  76 CALM      30.06S
BROOKLEY FIELD CLEAR     43  34  70 SW5       30.07F
EVERGREEN      CLEAR     36  34  92 CALM      30.02F
$$

ALZ049-050-065>069-270400-
SOUTHEAST ALABAMA

CITY           SKY/WX    TMP DP  RH WIND       PRES   REMARKS
DOTHAN         CLEAR     42  33  70 W6        30.02S
OZARK          CLEAR     40  32  74 W6        30.01R
TROY           CLEAR     45  33  63 CALM      30.01R
EUFAULA        FAIR      32  30  92 CALM      29.98S
$$


USA.gov is the U.S. government's official web portal to all federal, state and local government web resources and services.